When you browse on this site, cookies collect data to enhance your experience and personalize the content and advertising you see.
Visit our Privacy Policy to learn more. By continuing to use the site, you agree to this use of cookies and data.
  • In Österreich
  • Länderverzeichnis
  • Für 7 Tage
  • Wassertemperatur
  • Wetterkarte
  • News
  • Widgets
  • user-avatar
    Anmelden

    Stündliche Wetter Nha Trang

    Heute, 21 Januar, Dienstag

    Zeit Temperatur Niederschläge Wind Luftdruck Luftfeuchtigkeit
    00:00 +21°C° 0 mm 3 m/S 752 mmHg 86%
    01:00 +21°C° 0 mm 3 m/S 752 mmHg 87%
    02:00 +21°C° 0 mm 2 m/S 752 mmHg 87%
    03:00 +21°C° 0 mm 2 m/S 751 mmHg 88%
    04:00 +20°C° 0 mm 2 m/S 751 mmHg 88%
    05:00 +21°C° 0 mm 2 m/S 752 mmHg 87%
    06:00 +21°C° 0 mm 2 m/S 752 mmHg 86%
    07:00 +23°C° 0 mm 2 m/S 752 mmHg 87%
    08:00 +25°C° 0 mm 2 m/S 752 mmHg 81%
    09:00 +26°C° 0 mm 3 m/S 753 mmHg 74%
    10:00 +28°C° 0 mm 3 m/S 753 mmHg 67%
    11:00 +28°C° 0 mm 3 m/S 752 mmHg 67%
    12:00 +29°C° 0 mm 4 m/S 751 mmHg 66%
    13:00 +29°C° 0 mm 5 m/S 751 mmHg 64%
    14:00 +29°C° 0 mm 5 m/S 750 mmHg 67%
    15:00 +28°C° 0 mm 5 m/S 750 mmHg 70%
    16:00 +28°C° 0 mm 5 m/S 750 mmHg 72%
    17:00 +26°C° 0 mm 4 m/S 750 mmHg 78%
    18:00 +25°C° 0 mm 4 m/S 751 mmHg 83%
    19:00 +24°C° 0 mm 3 m/S 751 mmHg 88%
    20:00 +22°C° 0 mm 3 m/S 752 mmHg 89%
    21:00 +22°C° 0 mm 3 m/S 752 mmHg 89%
    22:00 +23°C° 0 mm 2 m/S 752 mmHg 90%
    23:00 +21°C° 0 mm 2 m/S 752 mmHg 90%

    Morgen, 22 Januar, Mittwoch

    Zeit Temperatur Niederschläge Wind Luftdruck Luftfeuchtigkeit
    00:00 +21°C° 0 mm 2 m/S 752 mmHg 91%
    01:00 +21°C° 0 mm 2 m/S 751 mmHg 92%
    02:00 +20°C° 0 mm 2 m/S 751 mmHg 92%
    03:00 +20°C° 0 mm 2 m/S 751 mmHg 92%
    04:00 +20°C° 0 mm 2 m/S 750 mmHg 92%
    05:00 +20°C° 0 mm 2 m/S 751 mmHg 91%
    06:00 +21°C° 0 mm 2 m/S 751 mmHg 89%
    07:00 +21°C° 0 mm 2 m/S 751 mmHg 88%
    08:00 +24°C° 0 mm 2 m/S 751 mmHg 81%
    09:00 +26°C° 0 mm 2 m/S 752 mmHg 74%
    10:00 +28°C° 0 mm 2 m/S 752 mmHg 66%
    11:00 +28°C° 0 mm 3 m/S 751 mmHg 65%
    12:00 +29°C° 0 mm 3 m/S 750 mmHg 64%
    13:00 +29°C° 0 mm 3 m/S 750 mmHg 63%
    14:00 +29°C° 0 mm 3 m/S 749 mmHg 65%
    15:00 +28°C° 0 mm 3 m/S 749 mmHg 67%
    16:00 +28°C° 0 mm 3 m/S 748 mmHg 69%
    17:00 +26°C° 0 mm 3 m/S 749 mmHg 76%
    18:00 +25°C° 0 mm 2 m/S 749 mmHg 83%
    19:00 +24°C° 0 mm 2 m/S 750 mmHg 89%
    20:00 +23°C° 0 mm 2 m/S 750 mmHg 90%
    21:00 +23°C° 0 mm 2 m/S 750 mmHg 90%
    22:00 +23°C° 0 mm 2 m/S 751 mmHg 90%
    23:00 +21°C° 0 mm 2 m/S 750 mmHg 91%

    übermorgen, 23 Januar, Donnerstag

    Zeit Temperatur Niederschläge Wind Luftdruck Luftfeuchtigkeit
    00:00 +21°C° 0 mm 2 m/S 750 mmHg 91%
    01:00 +21°C° 0 mm 2 m/S 749 mmHg 92%
    02:00 +21°C° 0 mm 2 m/S 749 mmHg 90%
    03:00 +23°C° 0 mm 2 m/S 749 mmHg 89%
    04:00 +23°C° 0 mm 2 m/S 749 mmHg 87%
    05:00 +24°C° 0 mm 2 m/S 749 mmHg 87%
    06:00 +24°C° 0 mm 2 m/S 750 mmHg 87%
    07:00 +24°C° 0 mm 2 m/S 750 mmHg 87%
    08:00 +26°C° 0 mm 2 m/S 751 mmHg 79%
    09:00 +27°C° 0 mm 2 m/S 751 mmHg 70%
    10:00 +29°C° 0 mm 2 m/S 751 mmHg 62%
    11:00 +29°C° 0 mm 2 m/S 750 mmHg 61%
    12:00 +29°C° 0 mm 3 m/S 749 mmHg 60%
    13:00 +30°C° 0 mm 3 m/S 748 mmHg 59%
    14:00 +29°C° 0 mm 3 m/S 748 mmHg 62%
    15:00 +29°C° 0 mm 3 m/S 748 mmHg 65%
    16:00 +28°C° 0 mm 3 m/S 747 mmHg 68%
    17:00 +27°C° 0 mm 3 m/S 748 mmHg 76%
    18:00 +25°C° 0 mm 2 m/S 748 mmHg 84%
    19:00 +24°C° 0 mm 2 m/S 748 mmHg 91%
    20:00 +23°C° 0 mm 2 m/S 749 mmHg 92%
    21:00 +23°C° 0 mm 2 m/S 749 mmHg 92%
    22:00 +23°C° 0 mm 2 m/S 750 mmHg 93%
    23:00 +23°C° 0 mm 2 m/S 750 mmHg 92%

    24 Januar, Freitag

    Zeit Temperatur Niederschläge Wind Luftdruck Luftfeuchtigkeit
    00:00 +23°C° 0 mm 2 m/S 749 mmHg 91%
    01:00 +21°C° 0 mm 2 m/S 749 mmHg 91%
    02:00 +21°C° 0 mm 2 m/S 749 mmHg 90%
    03:00 +21°C° 0 mm 2 m/S 749 mmHg 90%
    04:00 +23°C° 0 mm 2 m/S 749 mmHg 89%
    05:00 +23°C° 0 mm 2 m/S 749 mmHg 88%
    06:00 +23°C° 0 mm 2 m/S 750 mmHg 88%
    07:00 +24°C° 0 mm 1 m/S 750 mmHg 87%
    08:00 +25°C° 0 mm 1 m/S 750 mmHg 81%
    09:00 +27°C° 0 mm 1 m/S 750 mmHg 75%
    10:00 +29°C° 0 mm 1 m/S 750 mmHg 69%
    11:00 +29°C° 0 mm 2 m/S 750 mmHg 68%
    12:00 +30°C° 0 mm 3 m/S 749 mmHg 66%
    13:00 +30°C° 0 mm 3 m/S 748 mmHg 64%
    14:00 +30°C° 0 mm 3 m/S 748 mmHg 68%
    15:00 +29°C° 0 mm 3 m/S 747 mmHg 72%
    16:00 +28°C° 0 mm 3 m/S 747 mmHg 76%
    17:00 +27°C° 0 mm 3 m/S 747 mmHg 82%
    18:00 +26°C° 0 mm 2 m/S 747 mmHg 87%
    19:00 +24°C° 0 mm 1 m/S 748 mmHg 93%
    20:00 +24°C° 0 mm 1 m/S 748 mmHg 93%
    21:00 +24°C° 0 mm 1 m/S 749 mmHg 93%
    22:00 +24°C° 0 mm 1 m/S 749 mmHg 93%
    23:00 +24°C° 0 mm 1 m/S 749 mmHg 93%

    25 Januar, Samstag

    Zeit Temperatur Niederschläge Wind Luftdruck Luftfeuchtigkeit
    00:00 +23°C° 0 mm 1 m/S 748 mmHg 93%
    01:00 +23°C° 0 mm 1 m/S 748 mmHg 93%
    02:00 +23°C° 0 mm 2 m/S 748 mmHg 92%
    03:00 +23°C° 0 mm 2 m/S 747 mmHg 92%
    04:00 +23°C° 0 mm 2 m/S 747 mmHg 91%
    05:00 +23°C° 0 mm 2 m/S 748 mmHg 90%
    06:00 +23°C° 0 mm 2 m/S 748 mmHg 89%
    07:00 +24°C° 0 mm 2 m/S 749 mmHg 87%
    08:00 +26°C° 0 mm 2 m/S 749 mmHg 80%
    09:00 +28°C° 0 mm 1 m/S 749 mmHg 73%
    10:00 +29°C° 0 mm 1 m/S 749 mmHg 66%
    11:00 +30°C° 0 mm 2 m/S 748 mmHg 66%
    12:00 +30°C° 0 mm 2 m/S 748 mmHg 66%
    13:00 +30°C° 0 mm 3 m/S 747 mmHg 66%
    14:00 +30°C° 0 mm 3 m/S 746 mmHg 69%
    15:00 +29°C° 0 mm 2 m/S 746 mmHg 71%
    16:00 +28°C° 0 mm 2 m/S 745 mmHg 74%
    17:00 +27°C° 0 mm 2 m/S 746 mmHg 80%
    18:00 +26°C° 0 mm 1 m/S 746 mmHg 86%
    19:00 +23°C° 0 mm 0 m/S 747 mmHg 92%
    20:00 +23°C° 0 mm 0 m/S 747 mmHg 92%
    21:00 +22°C° 0 mm 0 m/S 747 mmHg 93%
    22:00 +22°C° 0 mm 0 m/S 748 mmHg 93%
    23:00 +24°C° 0 mm 1 m/S 747 mmHg 93%

    26 Januar, Sonntag

    Zeit Temperatur Niederschläge Wind Luftdruck Luftfeuchtigkeit
    00:00 +24°C° 0 mm 1 m/S 747 mmHg 93%
    01:00 +23°C° 0 mm 1 m/S 747 mmHg 93%
    02:00 +23°C° 0 mm 1 m/S 747 mmHg 92%
    03:00 +23°C° 0 mm 1 m/S 747 mmHg 92%
    04:00 +23°C° 0 mm 1 m/S 746 mmHg 91%
    05:00 +23°C° 0 mm 1 m/S 747 mmHg 89%
    06:00 +24°C° 0 mm 1 m/S 747 mmHg 88%
    07:00 +24°C° 0 mm 1 m/S 748 mmHg 86%
    08:00 +26°C° 0 mm 1 m/S 748 mmHg 79%
    09:00 +28°C° 0 mm 1 m/S 748 mmHg 72%
    10:00 +29°C° 0 mm 1 m/S 748 mmHg 66%
    11:00 +30°C° 0 mm 1 m/S 747 mmHg 65%
    12:00 +30°C° 0 mm 2 m/S 747 mmHg 65%
    13:00 +30°C° 0 mm 2 m/S 746 mmHg 65%
    14:00 +30°C° 0.1 mm 2 m/S 746 mmHg 68%
    15:00 +29°C° 0.1 mm 2 m/S 745 mmHg 72%
    16:00 +28°C° 0.1 mm 2 m/S 745 mmHg 76%
    17:00 +27°C° 0 mm 1 m/S 746 mmHg 81%
    18:00 +26°C° 0 mm 1 m/S 746 mmHg 85%
    19:00 +23°C° 0 mm 0 m/S 747 mmHg 89%
    20:00 +23°C° 0.1 mm 0 m/S 747 mmHg 89%
    21:00 +25°C° 0.1 mm 1 m/S 748 mmHg 90%
    22:00 +25°C° 0.1 mm 1 m/S 748 mmHg 90%
    23:00 +25°C° 0.1 mm 1 m/S 748 mmHg 91%
    Mehr zeigen